Regional Weather Roundup
Issued by NWS

Home | Current Version | Previous Version | Graphics & Text | Print | Product List | Glossary On
Versions: 1 2 3 4 5 6 7 8 9 10 11 12 13 14 15 16 17 18 19 20 21 22 23 24 25 26 27 28 29 30 31 32 33 34 35 36 37 38 39 40 41 42 43 44 45 46 47 48 49 50
000
ASUS45 KTFX 250410
RWRMT
MONTANA REGIONAL WEATHER ROUNDUP
NATIONAL WEATHER SERVICE GREAT FALLS MT
1000 PM MDT SAT JUN 24 2017

NOTE: "FAIR" INDICATES FEW OR NO CLOUDS BELOW 12000 FEET WITH NO
SIGNIFICANT WEATHER AND/OR OBSTRUCTIONS TO VISIBILITY.

MTZ001>007-043-250500-
WEST OF THE DIVIDE

CITY           SKY/WX    TMP DP  RH WIND       PRES   REMARKS
KALISPELL      CLEAR     65  47  52 NE3       30.20R
MISSOULA       CLEAR     67  37  33 NW6       30.20R
BUTTE          CLEAR     65  35  33 E5        30.33R
MULLAN PASS    CLEAR     61  36  39 NW5       30.35R
ANACONDA         N/A     59  37  44 SW5       30.30R
DEER LODGE       N/A     63  37  39 N6        30.31S
EUREKA           N/A     66  45  45 MISG      30.17S
HAMILTON         N/A     64  46  52 SE3       30.22S
$$

MTZ008-052>055-250500-
SOUTHWEST MONTANA

CITY           SKY/WX    TMP DP  RH WIND       PRES   REMARKS
BOZEMAN        CLEAR     60  40  47 E7        30.29R
DILLON         CLEAR     61  40  45 E10       30.28R
W YELLOWSTONE  CLEAR     54  34  47 CALM      30.38
ENNIS          CLEAR     55  37  50 N7        30.35S
THREE FORKS      N/A     63  43  48 CALM      30.25R
$$

MTZ009-010-012-014-046-048-049-054-250500-
EAST SLOPES AND CENTRAL MONTANA

CITY           SKY/WX    TMP DP  RH WIND       PRES   REMARKS
CUT BANK       PTCLDY    57  44  62 E6        30.34R
GREAT FALLS    CLOUDY    61  38  42 E13       30.33R
MALMSTROM AFB  CLOUDY    58  44  58 NE5       30.33R
HELENA         CLEAR     63  41  44 NW6       30.28R
CHOTEAU          N/A     57  45  62 NE3       30.36R
$$

MTZ011-013-016-021-045-047-050-051-250500-
NORTH CENTRAL MONTANA

CITY           SKY/WX    TMP DP  RH WIND       PRES   REMARKS
HAVRE          CLEAR     61  39  44 W6        30.30R
LEWISTOWN      CLOUDY    58  39  49 SE5       30.35S
N BAR RANCH    CLOUDY    55  39  54 SW3       30.39R
CHINOOK          N/A     59  41  51 CALM      30.28S
FORT BENTON      N/A     63  41  45 MISG      30.33R
$$

MTZ017>020-022>027-061-062-250500-
NORTHEAST MONTANA

CITY           SKY/WX    TMP DP  RH WIND       PRES   REMARKS
GLASGOW        CLEAR     58  36  43 E6        30.27R
JORDAN           N/A     57  28  33 CALM      30.29R
SIDNEY         CLEAR     53  35  50 SW5       30.28S
WOLF POINT     CLEAR     60  34  37 CALM      30.27R
MALTA          CLEAR     59  37  44 N3        30.27R
PLENTYWOOD       N/A     61  34  36 CALM      30.26S
POPLAR           N/A     57  37  47 SE6       30.28R
$$

MTZ028>42-056>058-250500-
SOUTHCENTRAL AND SOUTHEAST MONTANA

CITY           SKY/WX    TMP DP  RH WIND       PRES   REMARKS
BAKER          CLEAR     51  30  44 SE5       30.33R
BILLINGS       PTCLDY    64  37  36 E6        30.32R
LIVINGSTON     CLEAR     61  38  42 E14       30.33R
MILES CITY     CLEAR     60  27  28 N8        30.29R
BIG TIMBER     CLEAR     57  36  44 E8        30.38R
FORSYTH          N/A     59  34  38 CALM      30.30R
ROUNDUP          N/A     62  32  32 N2        30.23R
$$

REGIONAL REPORTS...DAKOTAS

CITY           SKY/WX    TMP DP  RH WIND       PRES   REMARKS
WILLISTON      CLEAR     48  39  71 CALM      30.27R
MINOT          CLEAR     52  38  58 W5        30.25R
DICKINSON      CLEAR     48  31  51 CALM      30.30R
BEACH            N/A     48  34  57 CALM      30.35R
CROSBY           N/A     48  45  87 S6        30.26S
TIOGA            N/A     46  41  81 S7        30.28S
WATFORD CITY     N/A     46  37  71 CALM      30.28S
BISMARCK       CLEAR     55  39  54 NW6       30.29R
GRAND FORKS    CLOUDY    53  48  83 NW10      30.17R
FARGO          CLOUDY    53  44  71 NW14      30.17S
BUFFALO SD       N/A     54  31  41 NE12      30.27R
RAPID CITY     CLEAR     56  30  37 N12       30.33R
$$

REGIONAL REPORTS...WYOMING/IDAHO/WASHINGTON

CITY           SKY/WX    TMP DP  RH WIND       PRES   REMARKS
GILLETTE       MOCLDY    60  33  36 NE5       30.36R
SHERIDAN       CLOUDY    58  45  62 CALM      30.34R
BUFFALO WY     CLOUDY    60  38  43 N3        30.39R
CODY           PTCLDY    61  36  39 CALM      30.38R
YELLOWSTONE LA   N/A     53  30  41 VRB5      30.46R
IDAHO FALLS    CLEAR     64  49  57 CALM      30.23R
SALMON         CLEAR     66  37  34 E6        30.18R
BOISE          CLEAR     80  36  20 W5        30.08S
SPOKANE        PTCLDY    79  35  20 N5        30.15S
$$

REGIONAL REPORTS...ALBERTA

CITY           SKY/WX    TMP DP  RH WIND       PRES   REMARKS
EDMONTON       CLEAR     61  48  63 E3        30.24S
CALGARY        PTCLDY    63  41  45 SE8       30.31R
LETHBRIDGE     PTCLDY    57  48  72 E6        30.30S
MEDICINE HAT   CLEAR     59  50  72 SW5       30.27S
WATERTON GATE    N/A     54  45  71 N5          N/A
MILK RIVER       N/A     54  45  71 E2          N/A
$$

REGIONAL REPORTS...SASKATCHEWAN

CITY           SKY/WX    TMP DP  RH WIND       PRES   REMARKS
SWIFT CURRENT  CLEAR     50  43  76 E7        30.27S
REGINA         PTCLDY    48  45  87 W2        30.25R
SASKATOON      LGT RAIN  57  46  67 W8        30.24S
CYPRESS HILLS    N/A     50  36  57 NW2         N/A
VAL MARIE        N/A     52  37  58 N3          N/A
ROCKGLEN         N/A     54  37  54 W6          N/A
ASSINIBOIA       N/A     59  48  67 SE5         N/A
$$



USA.gov is the U.S. government's official web portal to all federal, state and local government web resources and services.